sat.trackr.live / text

‹ back to catalog

STARLINK-36931

NORAD 68000 · 2026-039Q

PAYLOAD ACTIVE UNKNOWN

§ Identity

Operator
Country
US
Launch date
2026-02-27
Launch site
AFETR
Launch vehicle
Mass (kg)
RCS (m²)

Purposes: comms

External: N2YO · Heavens-Above · Gunter

§ Orbital elements

Epoch: 2026-09-19T15:50:34.786176Z

Period
94.27 min
Inclination
43.0012°
Eccentricity
0.0001571
Mean motion
15.27593217 rev/d
Perigee alt
481.9 km
Apogee alt
484.1 km
Semi-major
6,861.1 km
B*
4.3148e-4
RAAN
33.0523°
Arg perigee
271.1466°
Mean anomaly
88.9206°
Rev number
3,137

§ Raw data

STARLINK-369311 68000U 26039Q   26262.66012484  .00011635  00000+0  43148-3 0  99912 68000  43.0012  33.0523 0001571 271.1466  88.9206 15.27593217 31372

JSON: /api/v1/satellites/68000 · /tle

For live sub-satellite position, see the globe view (requires WebGL).

§ Visibility from observer

Set your observer location to see the next 7 days of passes ≥ 10°. The values pass through the URL so the page stays shareable.

No JS? Fill the form by hand. The geolocation button needs JavaScript.